Wetbulb
63.33 63.97 65.52 66.79 67.94 64.18 68.89 70.98 69.38 69.94 70.84 68.75 66.28 65.12 63.70 62.89 63.66 61.61 62.99 61.78 58.72 57.13 56.13 54.60 54.56 54.55 53.06 52.48 52.00 50.86 50.02 49.73 51.60 49.09 49.75 48.53 49.84 48.74 50.98 50.40 50.70 50.85 51.58
63.06 62.43 63.66 63.16 62.52 63.62 68.10 68.46 68.55 68.16 67.15 66.38 65.43 65.61 64.58 65.49 64.23 62.91 61.15 58.17 57.18 55.92 54.86 53.92 54.34 53.31 52.33 51.32 50.79 50.58 51.35 49.24 52.48 50.29 48.56 45.35 46.47 49.31 50.25 48.48 49.40 49.36 50.79
61.26 61.72 61.82 60.10 61.98 63.98 67.11 66.16 66.29 66.36 66.20 66.05 65.21 65.46 64.85 64.74 63.02 60.82 58.05 58.37 56.42 54.78 54.14 54.27 53.21 52.84 51.60 50.61 50.90 51.43 50.86 50.66 50.97 51.17 49.29 46.05 44.64 47.37 47.32 47.18 47.75 48.70 49.57
60.23 62.87 65.03 63.80 61.99 65.17 66.17 63.49 63.27 63.36 63.08 63.98 64.15 62.09 61.98 60.04 59.60 57.75 57.82 56.42 55.15 54.84 55.04 54.08 53.55 52.33 51.00 50.31 51.46 52.74 52.54 52.38 49.75 50.34 51.00 51.15 49.85 46.02 44.78 47.21 47.95 48.42 50.11
63.39 63.18 62.71 63.40 63.50 63.14 62.19 61.38 60.94 60.94 60.12 59.43 59.25 57.98 56.48 56.06 54.42 53.97 53.77 54.30 54.74 54.96 55.25 53.32 52.87 51.81 50.87 50.76 50.80 51.04 51.67 53.00 52.60 50.25 50.51 50.60 50.28 48.98 46.72 44.06 46.12 49.46 50.36
60.02 60.51 61.02 61.44 61.12 60.92 60.17 59.48 58.94 58.20 58.23 57.35 56.74 54.61 53.43 53.45 52.33 51.61 50.24 50.02 51.56 51.69 52.65 53.12 52.15 51.50 50.70 50.23 51.19 51.98 51.08 51.21 52.35 52.66 52.01 51.22 49.56 48.49 48.35 46.58 46.85 47.38 49.21
58.39 58.67 58.97 59.19 59.48 58.39 58.26 58.58 57.49 56.61 55.90 54.88 53.91 53.74 53.29 51.23 50.94 49.67 49.59 48.75 48.67 48.95 48.94 50.29 49.68 49.28 50.47 51.01 50.74 50.58 51.15 52.01 49.15 49.20 49.61 52.12 49.13 51.25 49.95 46.42 46.66 46.23 48.11
57.40 57.93 58.63 58.90 58.68 58.32 57.89 57.75 56.53 55.50 54.57 53.15 52.25 52.79 51.37 50.91 49.93 50.48 48.69 49.20 48.10 47.65 48.47 48.64 48.77 49.98 50.77 50.48 50.35 50.17 50.43 49.94 49.10 48.41 48.18 49.03 48.91 51.24 51.33 48.85 46.71 42.44 42.62
56.65 57.34 57.79 58.13 57.59 57.22 56.90 56.18 54.41 52.99 52.75 53.23 52.56 51.14 50.83 50.45 49.29 49.58 49.00 48.54 48.79 49.95 49.27 49.10 48.99 49.20 49.51 48.73 49.79 48.31 48.39 48.05 47.32 47.46 47.25 47.12 48.33 48.60 48.61 49.73 48.93 45.70 41.28
57.10 57.71 57.79 57.11 56.57 56.19 55.42 54.61 53.80 53.17 52.33 50.94 51.04 50.95 49.36 49.35 48.92 48.89 47.72 47.50 47.70 48.40 48.59 48.62 48.48 49.23 50.08 51.28 51.11 47.84 46.80 44.87 45.18 46.46 46.13 46.37 47.82 48.91 47.67 48.22 48.09 46.69 43.82
57.20 57.39 57.04 56.40 55.53 55.07 54.09 53.33 51.88 51.69 50.76 50.87 49.95 49.18 48.67 48.25 48.89 47.22 47.84 48.40 48.47 48.26 48.25 48.28 48.10 48.42 48.27 47.22 45.45 44.20 44.50 43.74 43.28 43.96 45.45 47.02 49.03 48.99 48.05 47.36 47.48 46.69 42.97
57.62 57.22 56.29 55.91 55.19 54.28 54.01 52.91 52.11 51.45 49.72 49.94 49.68 48.63 48.06 48.24 48.13 48.33 47.80 48.20 47.79 47.47 48.22 48.19 48.28 48.32 45.87 44.26 43.38 42.61 43.01 42.47 42.19 42.79 44.00 46.94 49.57 48.35 46.91 46.43 46.39 46.00 45.33
57.51 56.75 56.26 55.27 54.80 53.66 52.99 52.53 50.92 49.08 48.39 48.75 48.21 47.90 48.48 49.25 48.22 48.20 48.25 47.68 47.11 47.07 47.87 48.25 47.89 45.48 45.16 42.89 42.06 41.58 41.82 41.60 41.79 42.58 46.65 46.29 48.58 46.91 46.42 45.65 45.32 44.43 42.60
57.82 56.79 55.37 54.83 54.44 54.09 53.25 51.61 49.88 48.79 48.15 47.16 47.59 47.48 47.89 47.79 48.29 48.58 46.62 46.55 47.15 47.47 47.16 47.91 47.73 46.74 44.63 44.20 42.80 42.09 41.33 41.24 42.82 44.89 45.56 45.64 46.34 45.75 45.97 44.31 42.91 42.60 38.89
57.68 56.88 55.65 54.29 53.71 53.06 52.05 51.49 50.25 47.64 47.31 48.73 47.38 46.81 47.96 48.78 48.04 47.87 48.09 47.90 47.51 48.55 48.52 48.22 47.53 45.58 45.14 45.11 41.89 41.27 41.33 40.31 41.71 44.19 46.53 46.38 47.31 49.25 48.10 45.14 43.04 41.80 39.55
57.31 57.50 56.74 55.72 54.80 53.37 51.74 51.12 49.03 48.42 48.01 47.17 47.53 48.68 48.42 48.32 47.39 47.54 47.87 47.63 47.57 47.18 47.64 47.77 47.22 44.88 46.84 45.59 46.25 44.69 41.15 40.79 41.83 42.11 44.73 45.22 46.31 46.03 45.56 44.92 45.18 44.62 41.74
57.90 57.68 56.88 55.87 54.92 52.89 52.03 49.38 48.91 47.44 47.37 47.77 49.57 49.91 48.31 48.17 47.75 47.59 47.49 47.00 46.54 46.44 46.51 46.69 46.67 45.11 44.69 45.92 44.89 45.46 41.48 40.04 42.88 43.77 43.70 44.17 44.83 45.69 42.94 42.96 43.75 43.87 44.80
58.14 57.96 57.01 54.94 52.87 52.19 50.15 48.56 47.79 47.02 47.24 48.04 49.51 48.96 48.15 47.87 47.28 46.54 46.87 45.51 46.13 46.16 46.02 46.58 46.69 46.18 46.12 46.86 43.66 43.92 40.12 41.36 42.15 42.29 42.57 42.12 43.08 43.95 41.87 41.51 40.97 41.14 40.90
57.62 57.09 54.88 53.32 51.73 49.86 48.54 47.25 45.30 46.63 48.60 49.29 47.80 48.17 48.00 46.97 46.74 45.65 45.05 44.64 45.50 45.31 45.57 46.42 45.90 44.71 45.79 43.68 42.63 41.44 40.01 40.44 39.46 41.07 40.69 42.91 42.85 42.83 42.05 40.59 40.05 40.26 39.71
55.96 54.22 53.75 52.16 49.49 47.64 46.52 45.11 46.08 47.72 47.44 47.56 47.96 48.30 47.89 47.47 45.68 45.37 45.17 45.31 44.88 45.50 46.35 46.16 46.15 45.64 43.22 42.40 42.34 41.62 39.31 37.55 38.36 38.94 39.67 43.20 42.59 41.80 40.88 40.08 39.90 38.48 40.05
54.65 53.73 51.88 49.52 47.75 46.85 46.66 47.15 45.68 45.27 46.98 48.02 48.33 48.06 47.59 46.40 45.02 44.62 44.16 44.96 45.17 45.29 45.55 43.36 43.71 44.17 42.93 40.99 42.04 41.71 38.26 37.93 37.89 38.01 38.88 40.76 41.58 40.65 40.19 40.34 39.82 40.36 40.83
53.30 52.23 49.51 47.37 47.50 47.56 46.32 45.81 44.43 46.32 47.72 47.55 47.89 47.94 46.84 47.70 47.80 45.04 44.07 46.02 45.71 45.06 40.63 41.31 41.52 43.10 41.65 42.43 41.64 41.05 40.81 41.46 37.02 39.29 40.30 40.55 40.25 39.52 39.62 39.71 40.41 39.89 40.90
51.83 50.30 47.80 46.76 46.66 46.61 46.70 44.95 46.46 47.67 47.92 47.94 47.28 47.30 46.64 46.96 44.03 43.15 44.65 42.88 43.02 41.61 41.09 41.92 40.59 40.12 41.12 40.32 41.86 40.92 40.36 40.77 39.55 41.04 40.85 40.71 39.70 39.52 39.99 40.39 40.62 40.19 39.57
49.74 49.51 47.84 45.89 44.78 46.25 48.79 48.62 48.44 48.81 48.49 46.87 46.08 46.21 44.68 44.06 44.02 45.60 45.86 43.64 42.21 41.08 41.41 40.48 39.38 39.19 39.12 38.52 37.83 38.11 37.50 39.73 40.32 40.36 40.09 40.85 40.23 39.87 39.90 38.55 38.84 39.10 39.27
50.13 48.94 46.54 46.00 46.12 46.86 48.40 48.52 49.09 48.44 47.12 46.20 46.74 44.77 43.01 42.77 43.38 44.41 41.42 41.99 38.22 41.06 40.52 39.39 39.28 37.79 37.70 38.29 37.93 37.32 37.30 38.57 39.15 39.19 39.70 38.54 37.99 37.36 37.60 37.78 37.94 38.07 38.25
48.95 47.57 46.82 46.95 48.09 49.75 48.61 48.77 49.13 47.36 46.85 45.23 45.94 44.43 43.04 42.61 43.25 41.95 42.23 40.23 40.58 40.85 40.71 40.49 38.80 39.98 40.65 39.46 38.81 38.10 37.55 37.98 38.33 38.80 37.52 36.92 37.03 36.32 36.35 36.16 36.59 37.31 37.74
MSLP
1013.20 1012.25 1011.91 1012.59 1013.35 1014.75 1016.20 1017.03 1014.19 1015.05 1015.54 1016.73 1016.95 1017.03 1017.84 1018.18 1018.62 1018.93 1019.14 1019.20 1019.34 1019.55 1019.77 1020.01 1020.00 1019.91 1020.03 1020.23 1020.25 1020.14 1019.94 1019.82 1019.50 1019.33 1018.87 1018.12 1017.48 1017.66 1017.47 1017.29 1016.80 1016.30 1015.92
1013.30 1013.65 1013.25 1013.09 1013.44 1013.51 1015.57 1017.40 1016.49 1016.37 1016.48 1016.86 1017.29 1017.34 1017.69 1018.44 1018.81 1019.53 1019.47 1019.31 1019.45 1019.57 1019.64 1019.81 1019.99 1019.97 1020.14 1020.17 1020.03 1020.11 1020.14 1019.93 1019.39 1019.45 1019.06 1018.59 1018.13 1017.64 1017.62 1017.40 1017.00 1016.64 1016.10
1013.29 1014.45 1015.08 1015.42 1015.73 1015.99 1017.05 1017.83 1017.29 1017.32 1017.45 1017.33 1017.56 1017.69 1018.16 1018.57 1019.21 1019.71 1019.65 1019.34 1019.31 1019.37 1019.47 1019.63 1019.80 1020.07 1020.17 1020.24 1020.09 1019.93 1020.05 1019.81 1019.65 1019.48 1019.60 1019.18 1018.54 1017.97 1017.53 1017.20 1016.83 1016.44 1015.79
1013.22 1013.87 1015.25 1016.20 1016.70 1017.29 1017.79 1017.79 1017.64 1017.61 1018.03 1017.76 1017.46 1018.24 1018.54 1019.25 1019.60 1019.70 1019.59 1019.30 1019.23 1019.27 1019.27 1019.53 1019.80 1019.96 1020.05 1020.19 1020.09 1019.85 1019.89 1019.72 1019.63 1019.38 1019.17 1019.07 1018.81 1018.46 1017.44 1016.96 1016.53 1016.05 1015.72
1012.42 1013.62 1015.10 1015.90 1016.83 1017.30 1017.84 1018.29 1017.87 1017.98 1018.05 1017.71 1018.23 1018.70 1019.66 1019.75 1019.85 1019.78 1019.79 1019.64 1019.40 1019.37 1019.53 1019.70 1019.77 1019.86 1019.91 1020.01 1020.00 1019.72 1019.58 1019.48 1019.34 1019.31 1019.10 1018.77 1018.46 1018.30 1018.13 1016.71 1016.23 1015.91 1015.32
1012.88 1014.10 1015.26 1016.02 1017.13 1017.91 1018.32 1018.28 1018.25 1018.30 1018.28 1018.74 1019.30 1019.60 1019.85 1020.07 1020.12 1020.17 1020.18 1019.94 1019.79 1019.93 1019.97 1019.84 1019.86 1019.81 1019.71 1019.77 1019.74 1019.49 1019.35 1019.24 1019.09 1018.92 1018.81 1018.64 1018.37 1017.91 1017.55 1016.90 1016.09 1015.45 1014.84
1013.18 1014.36 1015.39 1016.19 1016.93 1017.61 1018.02 1018.23 1018.57 1019.11 1019.40 1019.69 1019.82 1019.81 1019.86 1019.97 1020.26 1020.32 1020.35 1020.38 1020.36 1020.29 1020.29 1020.17 1020.15 1019.90 1019.62 1019.45 1019.33 1019.27 1019.10 1018.85 1018.88 1018.68 1018.51 1018.14 1017.95 1017.55 1017.10 1016.76 1016.07 1015.44 1014.83
1013.17 1014.36 1015.36 1016.18 1016.79 1017.36 1017.95 1018.49 1018.95 1019.41 1019.67 1019.87 1019.97 1019.94 1019.96 1020.07 1020.16 1020.23 1020.33 1020.61 1020.63 1020.51 1020.27 1020.10 1019.90 1019.60 1019.35 1019.15 1019.00 1018.96 1018.83 1018.61 1018.51 1018.37 1018.15 1017.77 1017.43 1017.10 1016.79 1016.57 1016.23 1015.42 1014.93
1012.79 1014.07 1015.20 1016.03 1016.53 1017.12 1017.75 1018.27 1018.77 1019.27 1019.52 1019.71 1019.83 1019.94 1019.96 1020.06 1020.26 1020.40 1020.58 1020.68 1020.64 1020.46 1020.23 1020.08 1019.87 1019.41 1018.97 1018.77 1018.57 1018.67 1018.59 1018.59 1018.44 1018.14 1017.79 1017.48 1017.06 1016.70 1016.39 1016.17 1016.11 1015.95 1015.01
1012.88 1014.17 1015.05 1015.79 1016.31 1016.89 1017.55 1018.10 1018.47 1019.00 1019.34 1019.56 1019.77 1019.97 1020.10 1020.25 1020.45 1020.66 1020.84 1020.77 1020.65 1020.48 1020.38 1020.11 1019.74 1019.35 1018.96 1018.62 1018.74 1018.92 1019.01 1018.76 1018.51 1018.12 1017.79 1017.30 1016.74 1016.34 1015.98 1015.83 1015.69 1015.68 1015.48
1012.90 1014.19 1014.93 1015.85 1016.35 1016.88 1017.52 1018.11 1018.51 1018.91 1019.28 1019.60 1019.83 1020.10 1020.38 1020.47 1020.64 1020.76 1020.79 1020.76 1020.66 1020.58 1020.34 1019.96 1019.64 1019.42 1019.36 1019.46 1019.37 1019.31 1019.13 1018.93 1018.58 1018.10 1017.65 1017.16 1016.50 1016.00 1015.75 1015.57 1015.38 1015.33 1015.17
1012.83 1014.19 1015.13 1016.10 1016.69 1017.16 1017.53 1018.10 1018.56 1019.07 1019.36 1019.65 1020.05 1020.44 1020.54 1020.59 1020.64 1020.73 1020.70 1020.57 1020.68 1020.37 1020.23 1019.95 1019.69 1019.68 1019.79 1019.78 1019.69 1019.60 1019.26 1018.93 1018.56 1018.04 1017.47 1016.89 1016.23 1015.76 1015.56 1015.41 1015.29 1015.07 1014.87
1013.56 1014.38 1015.18 1015.98 1016.78 1017.51 1017.72 1018.16 1018.78 1019.31 1019.69 1020.07 1020.35 1020.51 1020.64 1020.77 1020.74 1020.70 1020.73 1020.66 1020.58 1020.42 1020.11 1019.84 1019.87 1019.85 1019.82 1019.68 1019.57 1019.38 1019.07 1018.85 1018.42 1017.82 1017.23 1016.78 1016.12 1015.74 1015.41 1015.26 1015.10 1014.84 1014.69
1015.32 1015.32 1015.52 1016.04 1016.61 1017.67 1017.92 1018.54 1019.13 1019.56 1019.93 1020.21 1020.38 1020.59 1020.66 1020.57 1020.58 1020.61 1020.52 1020.46 1020.30 1020.20 1019.97 1019.80 1019.82 1019.62 1019.50 1019.20 1019.05 1018.99 1018.84 1018.61 1018.12 1017.53 1017.01 1016.50 1016.06 1015.56 1015.16 1015.00 1014.89 1014.58 1014.32
1014.37 1014.98 1015.61 1016.26 1016.77 1017.70 1018.01 1018.65 1019.34 1019.81 1020.02 1020.35 1020.44 1020.45 1020.33 1020.30 1020.25 1020.22 1020.18 1020.11 1019.95 1019.86 1019.70 1019.53 1019.47 1019.24 1018.99 1018.61 1018.64 1018.61 1018.55 1018.20 1017.80 1017.29 1016.68 1016.12 1015.73 1015.32 1015.13 1015.09 1014.86 1014.40 1013.92
1012.79 1014.34 1015.39 1016.01 1016.93 1017.47 1017.95 1018.69 1019.37 1019.81 1020.06 1020.28 1020.26 1020.08 1020.04 1019.99 1019.96 1019.97 1019.90 1019.74 1019.72 1019.61 1019.43 1019.19 1018.99 1018.77 1018.38 1018.19 1018.14 1018.11 1018.26 1018.01 1017.58 1017.11 1016.36 1015.86 1015.39 1015.18 1015.00 1014.83 1014.48 1014.14 1013.57
1012.88 1014.28 1015.04 1015.85 1016.62 1017.20 1017.96 1018.87 1019.38 1019.71 1020.04 1020.13 1020.01 1019.82 1019.78 1019.86 1019.86 1019.74 1019.72 1019.75 1019.66 1019.46 1019.19 1018.79 1018.42 1018.29 1017.84 1017.65 1017.71 1018.10 1018.11 1017.78 1017.31 1016.74 1016.15 1015.61 1015.10 1014.74 1014.64 1014.53 1014.22 1013.78 1013.25
1013.10 1014.13 1014.94 1015.88 1016.80 1017.52 1018.24 1018.85 1019.34 1019.77 1019.93 1019.94 1019.88 1019.64 1019.70 1019.83 1019.78 1019.83 1019.85 1019.68 1019.43 1019.16 1018.76 1018.38 1017.90 1017.75 1017.46 1017.41 1017.89 1018.17 1018.03 1017.61 1017.18 1016.69 1016.19 1015.67 1015.06 1014.61 1014.65 1014.36 1013.80 1013.19 1012.64
1013.08 1014.16 1015.10 1016.11 1017.12 1017.83 1018.43 1019.01 1019.57 1019.79 1019.86 1019.92 1019.74 1019.73 1019.70 1019.82 1019.75 1019.86 1019.83 1019.54 1019.32 1019.04 1018.60 1018.09 1017.58 1017.55 1017.59 1017.76 1018.16 1018.22 1017.92 1017.54 1017.23 1016.73 1016.09 1015.57 1015.08 1014.87 1014.54 1014.04 1013.51 1012.93 1012.37
1013.52 1014.78 1015.72 1016.59 1017.45 1018.22 1018.72 1019.34 1019.67 1019.77 1019.91 1019.67 1019.71 1019.61 1019.57 1019.63 1019.73 1019.69 1019.53 1019.21 1018.92 1018.68 1018.47 1018.06 1017.67 1017.79 1018.09 1018.18 1018.28 1018.13 1017.87 1017.58 1017.06 1016.52 1015.92 1015.44 1015.07 1014.55 1014.18 1013.87 1013.36 1012.78 1012.26
1014.36 1015.39 1016.26 1017.23 1018.04 1018.56 1019.07 1019.50 1019.59 1019.78 1019.64 1019.57 1019.60 1019.53 1019.49 1019.48 1019.38 1019.28 1019.00 1018.81 1018.65 1018.62 1018.41 1018.29 1018.09 1018.02 1018.09 1018.23 1018.24 1017.96 1017.57 1017.30 1016.81 1016.34 1015.73 1015.21 1014.83 1014.33 1013.82 1013.40 1013.07 1012.58 1012.08
1015.00 1015.97 1016.93 1017.93 1018.38 1018.81 1019.21 1019.58 1019.67 1019.57 1019.54 1019.53 1019.51 1019.46 1019.30 1019.25 1019.08 1019.06 1018.82 1018.55 1018.49 1018.50 1018.33 1018.21 1018.43 1018.40 1018.41 1018.35 1018.12 1017.66 1017.42 1017.00 1016.69 1016.16 1015.73 1015.25 1014.73 1014.05 1013.53 1013.11 1012.65 1012.23 1011.69
1015.53 1016.47 1017.39 1018.22 1018.63 1018.99 1019.20 1019.47 1019.59 1019.53 1019.54 1019.64 1019.69 1019.53 1019.29 1019.12 1018.90 1018.93 1018.83 1018.54 1018.33 1018.25 1018.41 1018.48 1018.52 1018.45 1018.19 1018.16 1017.95 1017.65 1017.21 1016.88 1016.47 1016.06 1015.68 1015.12 1014.69 1014.15 1013.59 1013.14 1012.50 1012.02 1011.67
1015.95 1016.70 1017.64 1018.45 1018.95 1019.03 1019.19 1019.41 1019.33 1019.38 1019.58 1019.70 1019.67 1019.55 1019.55 1019.23 1018.77 1018.46 1018.29 1018.34 1018.25 1018.40 1018.49 1018.60 1018.65 1018.53 1018.40 1018.21 1017.91 1017.55 1017.07 1016.79 1016.38 1015.95 1015.35 1015.01 1014.66 1014.19 1013.75 1013.19 1012.66 1012.14 1011.71
1016.04 1016.76 1017.66 1018.37 1018.77 1018.87 1019.09 1019.06 1019.18 1019.36 1019.75 1019.77 1019.74 1019.63 1019.47 1019.26 1018.95 1018.45 1018.41 1018.26 1018.35 1018.21 1018.35 1018.63 1018.68 1018.53 1018.24 1018.00 1017.72 1017.33 1017.13 1016.88 1016.50 1015.81 1015.24 1014.87 1014.42 1013.97 1013.55 1013.19 1012.74 1012.30 1011.87
1016.12 1016.87 1017.48 1017.95 1018.27 1018.63 1018.82 1018.96 1019.15 1019.36 1019.66 1019.76 1019.68 1019.61 1019.49 1019.24 1018.91 1018.53 1018.16 1018.03 1018.07 1018.25 1018.30 1018.46 1018.40 1018.20 1017.95 1017.65 1017.27 1016.93 1016.86 1016.57 1016.16 1015.66 1015.25 1014.76 1014.36 1013.93 1013.48 1013.08 1012.65 1012.22 1011.88
Wind_Speed
14 15 19 19 20 7 7 17 12 6 7 3 4 4 4 3 5 5 6 5 5 4 4 2 3 3 4 3 2 2 3 3 2 3 6 4 6 3 10 6 7 7 8
12 10 18 22 19 5 8 6 8 8 4 3 1 3 4 4 4 3 3 4 4 3 2 1 3 3 2 3 3 2 3 2 2 2 4 4 4 2 8 4 6 6 8
16 12 9 8 6 8 1 2 5 6 4 5 4 4 5 2 3 3 2 2 5 1 2 3 2 3 3 2 3 3 3 2 3 2 2 3 3 7 2 5 4 7 6
15 13 11 8 9 6 3 6 7 8 6 5 6 7 4 3 2 2 2 3 3 4 2 3 3 3 2 3 3 3 3 1 4 2 2 3 5 3 5 3 5 4 7
18 17 13 14 13 9 7 4 7 8 8 10 8 7 6 4 2 3 4 4 3 3 2 4 3 2 1 3 4 4 4 3 3 2 3 3 3 5 4 10 8 6 6
17 15 11 12 14 8 6 6 7 8 9 9 8 8 7 5 4 4 4 4 3 5 6 4 4 0 1 3 4 4 4 4 4 3 4 4 4 5 4 7 10 10 8
16 15 13 11 12 9 8 7 8 8 7 8 7 6 5 6 6 5 4 6 4 3 6 5 5 4 4 5 5 5 5 4 3 5 4 4 4 5 4 3 7 8 9
14 14 14 13 13 11 10 9 8 8 7 7 6 6 7 4 4 5 4 3 3 3 4 6 6 7 6 5 5 2 4 5 4 6 5 4 4 4 3 2 4 10 8
11 12 10 12 12 11 10 9 9 8 7 6 6 5 5 6 5 5 4 3 4 4 6 7 6 7 6 6 6 3 5 5 5 6 6 4 4 3 3 2 2 4 9
13 12 11 10 8 9 8 9 8 8 7 6 6 5 5 6 5 5 5 4 4 5 6 7 7 7 7 6 7 5 5 6 5 5 7 5 3 4 3 3 3 2 3
14 12 11 9 9 8 9 8 8 8 7 7 5 6 4 4 4 3 2 2 3 5 6 6 6 6 7 8 7 7 7 7 7 7 8 8 6 4 3 4 4 3 3
13 12 11 9 7 8 7 7 7 8 7 6 6 4 2 1 0 1 2 4 4 5 6 6 6 7 7 6 6 6 6 7 8 8 7 9 8 5 4 4 5 3 4
13 12 11 8 9 7 7 7 7 7 7 6 4 2 1 3 3 2 4 2 3 5 6 5 5 5 5 4 3 4 6 7 7 8 8 8 8 5 4 3 3 4 5
5 8 9 8 9 8 7 8 7 7 5 1 3 2 2 1 3 2 3 3 5 4 4 5 2 3 4 2 2 5 6 6 8 8 7 6 7 8 4 3 4 5 5
14 12 10 9 9 8 8 8 7 6 1 3 2 1 4 4 4 4 5 6 4 4 4 5 1 3 4 4 3 2 6 6 7 7 7 6 14 14 7 4 7 8 5
19 15 13 13 11 10 9 8 7 4 3 2 3 5 4 3 4 4 5 5 5 4 4 6 4 6 5 7 8 5 5 7 7 7 6 6 10 6 7 9 13 12 8
17 14 14 12 9 8 11 8 6 4 2 3 5 5 3 2 1 3 5 4 3 3 6 7 6 8 8 10 7 4 5 6 8 7 8 7 9 8 3 7 13 14 16
14 13 11 10 10 9 9 8 6 3 3 5 6 2 3 3 4 4 2 3 3 4 6 7 8 6 7 7 4 4 6 6 7 7 8 11 11 6 3 8 10 11 10
9 11 13 13 10 10 8 7 4 3 4 5 4 4 4 3 3 4 5 4 4 5 6 6 8 5 6 10 4 5 6 6 7 9 8 11 10 8 10 11 10 10 9
15 14 13 12 11 7 8 6 4 4 1 5 3 3 4 2 4 4 3 4 4 6 5 8 7 11 5 6 8 5 3 5 5 6 7 11 11 12 14 8 8 9 8
16 14 12 11 8 7 6 3 3 4 1 2 3 4 3 3 4 3 3 4 7 5 6 4 5 6 5 5 2 6 2 4 4 6 7 8 14 18 15 13 7 7 9
14 12 11 8 7 6 4 4 4 2 0 1 4 3 4 4 4 4 5 7 5 3 3 5 3 1 2 5 4 9 7 11 3 7 8 9 16 14 14 10 10 11 10
11 11 10 8 5 4 6 4 4 3 2 4 4 4 4 4 5 5 7 5 4 2 3 4 3 4 4 3 9 8 10 9 6 6 12 13 13 14 10 14 10 9 4
11 10 9 8 5 3 3 4 5 3 3 4 5 5 4 5 7 5 5 4 3 3 3 3 3 3 4 3 4 4 4 7 8 10 8 10 10 9 9 9 8 6 5
7 9 8 7 7 6 5 4 5 3 3 4 5 4 4 6 6 6 2 1 1 3 3 1 1 3 4 4 5 4 4 4 6 10 6 6 6 6 6 5 6 6 6
7 7 8 8 7 6 6 5 5 4 1 2 3 4 4 5 4 4 5 5 6 5 7 3 3 4 7 9 10 8 6 4 8 5 6 6 6 6 6 6 5 4 7
Wind_Direction
120 119 123 123 168 232 2 325 103 90 87 39 78 71 83 88 75 67 67 53 65 45 55 40 47 37 19 6 358 331 346 326 318 340 316 288 287 354 354 332 324 325 337
127 122 132 151 189 139 70 343 45 87 63 83 69 113 100 84 84 80 77 100 93 68 109 82 89 30 355 348 350 342 308 300 331 314 316 329 318 8 317 319 314 306 321
127 116 129 132 112 119 311 133 80 77 54 86 90 78 70 74 94 125 98 120 139 169 224 127 112 60 39 349 331 322 294 302 307 336 259 314 291 319 232 284 281 307 319
125 122 131 152 148 181 149 61 63 75 61 60 71 94 95 107 155 120 159 193 203 226 189 104 80 112 48 351 317 315 305 261 284 326 256 234 263 306 306 247 282 304 310
125 122 124 122 116 97 87 86 76 73 62 60 61 70 74 69 70 49 21 2 318 252 48 83 37 117 70 303 292 304 315 283 261 232 281 279 266 250 257 307 320 304 310
110 113 117 116 118 116 118 101 88 73 66 66 69 84 88 88 74 44 42 5 360 54 39 3 8 355 295 289 285 285 295 284 298 281 281 272 276 281 283 296 313 317 329
122 128 134 133 127 129 116 92 86 88 88 84 78 79 65 70 89 70 43 21 7 18 1 24 342 318 291 282 277 295 283 277 267 270 271 268 265 267 271 274 310 320 316
141 145 146 146 142 137 129 131 130 114 105 99 90 76 70 77 71 66 44 36 35 356 346 344 328 315 302 303 273 304 296 298 287 288 283 278 272 278 258 267 315 323 320
136 134 124 124 128 134 142 136 120 119 123 130 115 93 79 68 65 53 52 41 20 339 338 318 307 297 295 289 271 272 287 332 309 301 296 280 271 294 289 264 278 297 319
120 123 125 124 117 120 124 119 120 124 116 100 92 84 77 72 57 58 57 36 355 338 328 323 322 319 313 336 3 359 10 2 335 327 318 306 279 287 293 297 285 207 256
134 129 125 116 120 112 106 115 115 115 98 95 82 72 64 48 75 66 30 10 357 344 343 338 339 341 21 41 35 15 3 352 335 328 328 305 296 282 306 302 298 283 235
126 124 118 128 133 125 120 120 116 105 106 100 86 93 48 64 51 104 68 18 19 345 325 329 329 14 65 43 34 357 337 329 321 313 311 318 312 310 311 297 298 298 295
120 126 126 142 126 122 116 110 95 100 87 79 118 159 248 50 12 348 70 29 324 306 316 331 2 102 97 58 1 343 333 316 305 301 313 310 322 316 299 296 314 337 314
216 149 141 139 128 134 132 114 99 94 98 140 216 177 142 254 273 182 202 262 272 274 312 318 55 120 154 177 291 341 327 310 315 304 304 313 324 309 313 326 321 321 303
176 157 152 140 130 133 120 107 103 100 133 281 118 212 247 228 237 253 249 247 259 258 281 301 278 207 217 235 261 306 299 304 302 302 311 324 329 346 2 352 333 320 299
156 154 147 139 144 141 131 120 124 127 159 274 247 260 229 226 251 263 269 251 271 271 280 289 257 235 246 245 231 232 293 311 296 286 299 305 329 333 318 329 324 320 319
149 149 152 148 146 134 122 125 132 133 199 242 272 264 224 260 339 328 329 354 317 300 288 283 281 245 252 237 223 280 303 311 294 294 308 313 320 295 275 328 331 322 310
143 140 133 113 106 109 101 106 110 129 215 257 270 25 40 30 13 3 22 334 308 283 278 285 282 270 262 255 131 326 328 312 318 320 323 319 324 328 16 334 319 302 299
119 114 114 114 109 107 114 111 129 212 263 280 55 31 5 350 346 325 304 294 293 295 290 288 286 317 336 99 88 9 331 312 323 320 314 332 336 348 329 320 308 308 299
107 111 109 104 102 106 109 129 198 238 77 42 8 330 311 350 325 324 287 265 282 282 309 306 341 96 99 101 52 336 306 318 323 319 326 332 330 318 320 317 312 307 314
108 104 101 107 114 115 125 192 93 82 30 338 329 311 340 325 310 260 282 281 289 329 311 0 82 90 119 126 170 292 349 329 313 321 332 328 326 321 314 310 298 287 304
108 104 102 103 114 127 137 118 95 231 73 316 291 303 304 295 309 287 295 302 301 246 307 34 63 113 121 189 280 15 0 342 338 325 335 323 334 318 307 310 291 299 308
111 110 113 118 131 140 141 129 194 92 359 339 13 1 338 329 315 314 296 302 293 253 18 62 33 2 345 7 355 346 345 337 341 334 323 332 337 335 338 336 342 331 326
120 126 124 122 125 141 162 213 130 89 19 22 334 310 336 322 310 310 288 302 320 65 73 42 11 335 337 340 323 317 333 328 335 332 321 324 318 326 333 340 337 336 337
123 128 133 141 163 184 216 126 114 77 56 358 340 352 340 325 310 308 303 62 260 150 123 90 350 324 315 281 286 302 327 330 317 317 316 323 328 328 327 323 325 329 331
123 116 141 153 178 169 143 125 105 79 9 348 336 335 325 317 312 310 321 30 148 109 92 111 207 289 280 293 310 296 291 314 332 332 327 322 316 312 314 314 311 309 318